#timestamp,LO_Frequency,Hit,StdDev 
1592805615.4,286046999.4,N
1592805635.2,286046992.3,N
1592805655.1,286046992.9,N
1592805656.0,286046992.9,N
1592805675.8,286046994.3,N
1592805695.7,286046990.5,N
1592805715.5,286046984.4,Y
1592805735.3,286046988.5,P
1592805755.2,286046991.4,N
1592805775.9,286046990.3,P
1592805795.7,286046989.6,Y
1592805815.6,286046998.4,P
1592805835.4,286047002.4,N
1592805855.3,286046998.4,N
1592805875.1,286046999.4,N
1592805876.0,286046999.4,N
1592805895.8,286046994.5,N
1592805915.7,286046994.8,N
1592805935.5,286046990.6,N
1592805955.3,286046986.3,Y
1592805975.2,286046982.0,P
1592805995.0,286046972.7,P
1592805995.9,286046972.7,N
1592806015.8,286046972.2,N
1592806035.6,286046971.7,Y
1592806055.4,286046987.4,P
1592806075.3,286046985.3,P
1592806095.1,286046985.3,P
1592806115.8,286046981.8,Y
1592806135.7,286046996.3,P
1592806155.5,286046999.4,N
1592806175.4,286047002.8,N
1592806195.2,286047005.0,N
1592806215.0,286047005.9,N
1592806215.9,286047005.9,N
1592806235.8,286047002.6,N
1592806255.6,286046999.9,N
1592806275.4,286047002.5,N
1592806295.3,286047000.9,N
1592806315.1,286046996.6,N
1592806335.9,286046995.0,N
1592806355.7,286046995.9,N
1592806375.5,286046991.7,N
1592806395.4,286046992.3,N
1592806415.2,286046984.6,N
1592806435.0,286046980.8,N
1592806435.9,286046980.8,N
1592806455.8,286046983.9,N
1592806475.6,286046984.3,N
1592806495.5,286046984.1,N
1592806515.3,286046984.3,N
1592806535.1,286046984.6,N
1592806555.9,286046982.5,N
1592806575.7,286046980.0,N
1592806595.5,286046975.7,N
1592806615.4,286046976.6,N
1592806635.2,286046976.4,N
1592806655.0,286046971.7,N
1592806656.0,286046971.7,N
1592806675.8,286046970.3,N
1592806695.6,286046974.0,N
1592806715.5,286046971.4,N
1592806735.3,286046967.9,N
1592806755.1,286046967.6,N
1592806775.9,286046962.2,Y
1592806795.7,286046972.9,P
1592806815.5,286046972.0,P
1592806835.4,286046971.4,P
1592806855.2,286046971.5,Y
1592806875.1,286046992.7,P
1592806876.0,286046992.7,N
1592806895.8,286046987.6,N
1592806915.6,286046989.3,N
1592806935.5,286046994.3,N
1592806955.3,286046992.2,N
1592806975.1,286046991.8,N
1592806995.9,286046992.5,N
1592807015.7,286046994.8,N
1592807035.6,286046998.0,N
1592807055.4,286046996.5,N
1592807075.2,286046996.9,N
1592807095.1,286046997.9,N
1592807096.0,286046997.9,N
1592807115.8,286046998.4,N
1592807135.6,286047001.0,N
1592807155.5,286046996.6,N
1592807175.3,286046999.5,N
1592807195.2,286046995.3,N
1592807215.9,286046995.5,N
1592807235.7,286046994.9,N
1592807255.6,286046994.2,N
1592807275.4,286046989.7,N
1592807295.2,286046984.4,Y
1592807315.1,286046990.7,P
1592807335.8,286046985.7,P
1592807355.7,286046981.0,P
1592807375.5,286046976.7,Y
1592807395.4,286046981.7,P
1592807415.2,286046979.9,P
1592807435.1,286046972.6,P
1592807436.0,286046972.6,Y
1592807455.8,286046994.2,P
1592807475.6,286046996.4,N
1592807495.5,286046996.2,N
1592807515.3,286046999.2,N
1592807535.2,286046996.7,N
1592807555.9,286046997.6,N
1592807575.7,286046993.3,N
1592807595.6,286046993.1,N
1592807615.4,286046995.8,N
1592807635.2,286046995.6,N
1592807655.1,286046994.6,N
1592807656.0,286046994.6,N
1592807675.8,286046990.1,N
1592807695.7,286046989.9,N
1592807745.5,286046987.2,E
1592807755.5,286046988.6,N
1592807775.3,286046994.7,P
1592807795.1,286046984.7,P
1592807815.9,286046975.7,Y
1592807835.7,286046986.6,P
1592807855.5,286046985.5,P
1592807875.4,286046986.6,P
1592807895.2,286046986.3,Y
1592807915.1,286046998.6,P
1592807916.0,286046998.6,N
1592807935.8,286047003.5,N
1592807955.6,286047006.2,N
1592807975.5,286047014.5,N
1592807995.3,286047016.6,N
1592808015.1,286047011.1,N
1592808035.9,286047008.2,N
1592808055.7,286047007.7,N
1592808075.6,286047009.6,N
1592808095.4,286047007.1,N
1592808115.2,286047005.7,N
1592808135.1,286047001.4,N
1592808136.0,286047001.4,N
1592808155.8,286047004.9,N
1592808175.6,286047005.0,N
1592808195.5,286046998.3,N
1592808215.3,286047000.8,N
1592808235.2,286046993.8,N
1592808255.9,286046999.6,N
1592808275.7,286046999.5,N
1592808295.6,286046990.2,N
1592808315.4,286046992.7,N
1592808335.2,286046990.1,N
1592808355.1,286046993.1,N
1592808356.0,286046993.1,N
1592808375.8,286046996.1,N
1592808395.7,286046989.2,N
1592808415.5,286046988.4,N
1592808435.3,286046981.1,N
1592808455.2,286046974.3,Y
1592808475.0,286046974.4,P
1592808475.9,286046974.4,N
1592808495.7,286046974.5,N
1592808515.6,286046972.6,N
1592808535.4,286046970.6,N
1592808555.3,286046964.5,Y
1592808575.1,286046986.8,P
1592808576.0,286046986.8,N
1592808595.8,286046979.0,P
1592808615.7,286046983.6,Y
1592808635.5,286046996.5,P
1592808655.3,286046995.4,N
1592808675.2,286046998.1,N
1592808695.0,286046999.8,N
1592808695.9,286046999.8,N
1592808715.8,286046997.0,N
1592808735.6,286046997.8,N
1592808755.4,286046997.6,N
1592808775.3,286046990.1,N
1592808795.1,286046986.9,N
1592808815.8,286046986.5,N
1592808835.7,286046987.1,N
1592808855.5,286046990.0,N
1592808875.4,286046984.2,N
1592808895.2,286046980.7,Y
1592808915.0,286046986.3,P
1592808915.9,286046986.2,P
1592808935.8,286046984.0,P
1592808955.6,286046983.3,Y
1592808975.5,286046990.5,P
1592808995.3,286046988.6,P
1592809015.1,286046991.6,P
1592809035.9,286046987.3,Y
1592809055.7,286046997.6,P
1592809075.5,286046994.2,N
1592809095.4,286046992.3,N
1592809115.2,286046991.1,Y
1592809135.1,286046998.0,P
1592809136.0,286046998.0,N
1592809155.8,286046993.4,P
1592809175.6,286046994.0,N
1592809195.5,286046993.6,N
